[[{"header":{"parameterUnit":"m.s-1","parameterCategory":1,"la1":30.2991,"la2":30.254,"lo1":-89.0895,"lo2":-89.0444,"dx":0.0017,"dy":0.0017,"nx":28,"ny":28,"refTime":"2022-11-29T09:00:00:Z","depth":0,"parameterNumber":2,"parameterNumberName":"U-component_of_WINDS"},"data":[0,0,0,0,0,0,0,0,0,0,0,0,0,0,0,0,0,0,0,0,0,0,0,0,0,0,0,0,0,0,0,0,0,0,0,0,0,0,0,0,0,0,0,0,0,0,0,0,0,0,0,0,0,0,0,0,0,0,1.2906,1.2905,0,1.2871,1.2871,1.2871,1.2826,1.2825,1.2825,1.2824,1.2789,1.2789,1.2789,0,0,0,0,0,0,0,0,0,0,0,0,0,1.2934,1.2934,1.2906,1.2905,1.2905,1.2871,1.2871,1.287,1.2826,1.2825,1.2825,1.2824,1.2789,1.2789,1.2789,0,0,0,0,0,0,0,0,0,0,0,0,0,1.2913,1.2934,1.2906,1.2879,1.2876,1.2871,1.2871,1.287,1.2827,1.2825,1.2824,1.2823,1.2789,1.2789,1.2788,1.2808,0,0,1.2787,1.2787,0,0,0,0,0,0,0,0,1.2914,1.2912,1.2883,1.2881,1.2878,1.2852,1.2868,1.2849,1.2827,1.2845,1.2824,1.2823,1.2811,1.2809,1.2805,1.2806,1.2804,1.2787,1.2787,1.2787,1.2787,0,0,0,0,0,0,0,1.2916,1.2913,1.2892,1.2883,1.288,1.2869,1.2865,1.2864,1.2835,1.2844,1.284,1.2837,1.2809,1.2805,1.2803,1.2804,1.2787,1.2787,1.2787,1.2787,1.282,1.2821,0,0,0,0,0,0,1.2921,1.2915,1.2893,1.2891,1.2894,1.2869,1.2864,1.2861,1.2834,1.2829,1.2838,1.2835,1.2806,1.2804,1.2802,1.2823,1.2787,1.2786,1.2786,1.2819,1.2821,1.2822,0,0,0,0,0,0,1.2922,1.292,1.2895,1.2902,1.2898,1.287,1.2867,1.2861,1.2857,1.283,1.2825,1.2839,1.2805,1.2803,1.2807,1.2821,1.2786,1.2786,1.2818,1.282,1.2821,1.2866,0,0,0,0,0,0,1.2923,1.292,1.2927,1.2903,1.2898,1.29,1.2868,1.2861,1.2856,1.2852,1.283,1.2825,1.2804,1.2808,1.2806,1.282,1.2786,1.2816,1.2819,1.2821,1.2863,1.2869,1.2874,0,0,0,0,0,1.2924,1.2941,1.2928,1.2925,1.2906,1.2901,1.2898,1.2874,1.2858,1.2864,1.2847,1.2826,1.282,1.2808,1.2807,1.2821,1.2815,1.2818,1.282,1.286,1.2867,1.2873,0,0,0,0,0,0,1.2968,1.2937,1.2922,1.2931,1.2919,1.2893,1.2901,1.2882,1.2874,1.2871,1.2841,1.2836,1.2844,1.2833,1.282,1.2838,1.2815,1.2817,1.2845,1.2852,1.2857,1.286,1.2785,0,0,0,0,0,1.2978,1.2977,1.295,1.2961,1.2955,1.2929,1.2926,1.2909,1.2895,1.2889,1.2872,1.286,1.2855,1.2853,1.2847,1.2861,1.2856,1.287,1.2875,1.288,1.2882,1.2889,1.2895,1.283,1.283,1.283,0,0,1.3,1.2983,1.2984,1.2969,1.2957,1.2957,1.2925,1.2926,1.2925,1.2889,1.2892,1.288,1.2864,1.2873,1.2876,1.2864,1.2899,1.2883,1.2887,1.2887,1.2893,1.2899,1.2904,1.2832,1.2832,1.2831,0,0,1.3039,1.3026,1.3034,1.3023,1.3006,1.2989,1.2991,1.2969,1.2959,1.2961,1.2935,1.2934,1.2927,1.2917,1.2911,1.2948,1.2928,1.2947,1.2975,1.2983,1.2988,1.2992,1.3006,1.3011,1.2949,1.2949,1.2949,0,1.3069,1.3066,1.304,1.3043,1.3037,1.3005,1.3013,1.3004,1.2986,1.2983,1.297,1.296,1.2947,1.2954,1.2963,1.2959,1.2961,1.2949,1.2989,1.2993,1.2997,1.301,1.3015,1.2952,1.2951,1.2951,1.2951,0,1.3104,1.3103,1.3111,1.3095,1.309,1.3095,1.307,1.3069,1.3052,1.3037,1.304,1.3024,1.3015,1.3015,1.2998,1.302,1.3013,1.2995,1.297,1.3006,1.3018,1.3023,1.2955,1.2954,1.2954,1.2953,0,0,1.3168,1.3139,1.3142,1.3135,1.3114,1.3113,1.3117,1.3108,1.3108,1.3097,1.31,1.3095,1.3079,1.3072,1.3054,1.306,1.3092,1.3041,1.3041,1.3052,1.3115,1.3129,1.3135,1.3079,1.3079,1.308,1.3117,0,1.3204,1.3209,1.3187,1.3198,1.3197,1.3167,1.3171,1.3159,1.3145,1.3143,1.3127,1.3124,1.3102,1.3098,1.3103,1.3087,1.3104,1.3084,1.3082,1.3082,1.3087,1.3141,1.3156,1.3191,1.3121,1.3122,1.3122,0,1.3246,1.3238,1.325,1.3229,1.3228,1.3232,1.3222,1.322,1.3207,1.3196,1.3189,1.3169,1.3172,1.3149,1.3153,1.314,1.3138,1.313,1.3131,1.313,1.3104,1.3142,1.3202,1.3207,1.3129,1.3129,1.3128,0,1.3293,1.3285,1.3291,1.3285,1.3262,1.3265,1.3256,1.3241,1.3238,1.3229,1.3227,1.3219,1.3215,1.321,1.3189,1.3174,1.3196,1.3171,1.3188,1.3188,1.3193,1.3193,1.3254,1.3192,1.3192,1.3192,1.3192,0,1.3335,1.3344,1.3312,1.3315,1.3324,1.3298,1.3307,1.3295,1.3282,1.3283,1.3257,1.3259,1.323,1.3229,1.3212,1.3219,1.3217,1.3209,1.3204,1.3211,1.3212,1.3209,1.3206,1.3193,1.3193,1.3193,1.3192,0,1.3389,1.3368,1.3372,1.335,1.3345,1.3352,1.3333,1.3336,1.3321,1.3323,1.3322,1.3298,1.3295,1.3273,1.3265,1.3254,1.3267,1.3258,1.3272,1.3269,1.3287,1.3286,1.3348,1.3355,1.3288,1.3289,1.3289,0,1.3417,1.3423,1.3401,1.34,1.3392,1.3391,1.3387,1.3362,1.336,1.3346,1.335,1.3345,1.334,1.3337,1.332,1.3314,1.3304,1.3326,1.3303,1.331,1.3305,1.3305,1.3306,1.3331,1.3332,1.3333,1.3333,0,1.347,1.3459,1.3455,1.3448,1.3444,1.3437,1.3429,1.343,1.3402,1.3401,1.3398,1.3394,1.3387,1.3382,1.3374,1.3364,1.3345,1.3341,1.3345,1.3352,1.336,1.3356,1.3285,1.334,1.3339,1.3339,1.3338,1.3338,1.3511,1.3515,1.3501,1.3498,1.3489,1.3482,1.3484,1.3469,1.3466,1.3458,1.3444,1.3443,1.3431,1.3417,1.3409,1.3409,1.3397,1.3402,1.3404,1.3405,1.3409,1.336,1.3407,1.3407,1.3407,1.3407,1.3406,0,1.3563,1.3552,1.355,1.3539,1.3537,1.3519,1.3509,1.3508,1.3508,1.3498,1.3493,1.349,1.3487,1.3469,1.3463,1.3467,1.3458,1.3466,1.3465,1.3464,1.342,1.3417,1.3473,1.3473,1.3473,1.3473,1.3473,1.3473,1.3589,1.3595,1.3583,1.3585,1.3575,1.3574,1.357,1.3564,1.3556,1.3554,1.3551,1.3539,1.3527,1.352,1.3516,1.3511,1.351,1.3522,1.3514,1.3473,1.3467,1.346,1.3458,1.3522,1.3522,1.3558,1.3558,1.3558]},{"header":{"parameterUnit":"m.s-1","parameterCategory":1,"la1":30.2991,"la2":30.254,"lo1":-89.0895,"lo2":-89.0444,"dx":0.0017,"dy":0.0017,"nx":28,"ny":28,"refTime":"2022-11-29T09:00:00:Z","depth":0,"parameterNumber":3,"parameterNumberName":"V-component_of_WINDS"},"data":[0,0,0,0,0,0,0,0,0,0,0,0,0,0,0,0,0,0,0,0,0,0,0,0,0,0,0,0,0,0,0,0,0,0,0,0,0,0,0,0,0,0,0,0,0,0,0,0,0,0,0,0,0,0,0,0,0,0,6.389,6.3892,0,6.4051,6.4053,6.4055,6.4076,6.4074,6.4073,6.4071,6.4234,6.424,6.4245,0,0,0,0,0,0,0,0,0,0,0,0,0,6.3602,6.3607,6.389,6.3892,6.3894,6.4051,6.4053,6.4055,6.4076,6.4074,6.4072,6.4071,6.4232,6.4239,6.4246,0,0,0,0,0,0,0,0,0,0,0,0,0,6.3741,6.3608,6.389,6.3924,6.3928,6.405,6.4053,6.4056,6.4076,6.4074,6.4072,6.407,6.423,6.4238,6.4247,6.4346,0,0,6.4273,6.4277,0,0,0,0,0,0,0,0,6.3733,6.3752,6.3917,6.3922,6.3927,6.4041,6.4011,6.4153,6.4077,6.402,6.4071,6.4069,6.4172,6.4185,6.422,6.4354,6.4361,6.4274,6.4279,6.4283,6.4285,0,0,0,0,0,0,0,6.3723,6.3745,6.3954,6.3919,6.3925,6.3931,6.3948,6.4038,6.4107,6.4025,6.4027,6.4046,6.4174,6.4212,6.4224,6.4363,6.4274,6.4281,6.4287,6.429,6.4589,6.4591,0,0,0,0,0,0,6.3708,6.3737,6.3949,6.3959,6.3822,6.3938,6.3957,6.4007,6.4106,6.4119,6.4047,6.4046,6.4198,6.4214,6.423,6.4355,6.4283,6.4291,6.4296,6.4586,6.4589,6.4592,0,0,0,0,0,0,6.3701,6.3726,6.3942,6.3848,6.3876,6.3945,6.4001,6.4011,6.4049,6.4123,6.4135,6.4073,6.4197,6.4218,6.4318,6.4361,6.4295,6.4303,6.4583,6.4587,6.4591,6.4604,0,0,0,0,0,0,6.3693,6.3724,6.3762,6.3849,6.3881,6.4028,6.4003,6.4016,6.4064,6.4064,6.415,6.4163,6.4197,6.4305,6.4326,6.4371,6.4309,6.4579,6.4585,6.459,6.46,6.4608,6.4614,0,0,0,0,0,6.3683,6.3758,6.3764,6.3789,6.393,6.403,6.4048,6.4086,6.4067,6.4107,6.4154,6.416,6.4352,6.4315,6.4339,6.4387,6.4577,6.4583,6.4589,6.4596,6.4606,6.4614,0,0,0,0,0,0,6.3673,6.377,6.3778,6.3884,6.3949,6.4033,6.4084,6.4095,6.4166,6.4163,6.4207,6.4226,6.4325,6.4366,6.4323,6.449,6.4463,6.4474,6.446,6.447,6.4477,6.4466,6.4317,0,0,0,0,0,6.3684,6.3757,6.3837,6.3923,6.3956,6.4014,6.4059,6.4083,6.4152,6.4179,6.4234,6.43,6.4376,6.4425,6.4498,6.4605,6.4626,6.4651,6.4658,6.4664,6.4673,6.4736,6.4749,6.4613,6.4613,6.4613,0,0,6.3706,6.3768,6.3811,6.3923,6.3976,6.4051,6.4037,6.4116,6.4173,6.4191,6.429,6.4332,6.4409,6.4514,6.4563,6.4551,6.4716,6.4672,6.4676,6.4683,6.4744,6.4756,6.4768,6.4617,6.4616,6.4616,0,0,6.3785,6.3839,6.3918,6.3972,6.4053,6.4092,6.4111,6.4194,6.4224,6.4324,6.434,6.4407,6.4536,6.4591,6.4636,6.4738,6.4747,6.4761,6.48,6.486,6.4871,6.4881,6.492,6.4933,6.477,6.477,6.477,0,6.3803,6.3917,6.3956,6.4037,6.4086,6.4107,6.4188,6.4238,6.4338,6.4372,6.4358,6.4522,6.4575,6.4694,6.472,6.4754,6.4778,6.4752,6.4866,6.4876,6.4886,6.4924,6.4938,6.4771,6.4771,6.4771,6.4771,0,6.3935,6.4014,6.4068,6.4167,6.4222,6.4302,6.4354,6.4405,6.4425,6.4465,6.4568,6.4632,6.4721,6.475,6.4769,6.4873,6.4864,6.4857,6.4831,6.49,6.4936,6.495,6.4773,6.4773,6.4772,6.4772,0,0,6.4013,6.4134,6.4153,6.4199,6.4291,6.4353,6.4434,6.4522,6.4566,6.4635,6.4705,6.4815,6.481,6.4861,6.4886,6.4939,6.5019,6.4926,6.4929,6.4943,6.5141,6.5146,6.5162,6.5025,6.5028,6.503,6.5135,0,6.4105,6.4251,6.429,6.4415,6.4489,6.4511,6.4582,6.4647,6.4687,6.4756,6.48,6.4878,6.4865,6.4896,6.4949,6.4998,6.506,6.4991,6.5092,6.5095,6.5074,6.5181,6.5187,6.5283,6.5149,6.5151,6.5153,0,6.4231,6.4305,6.4437,6.4522,6.4555,6.4618,6.4703,6.4768,6.4842,6.4868,6.4926,6.4947,6.5033,6.5002,6.5122,6.5075,6.5118,6.5149,6.5154,6.5166,6.5129,6.5198,6.5314,6.5329,6.5175,6.5174,6.5172,0,6.4278,6.4409,6.4507,6.4545,6.4645,6.469,6.4734,6.4806,6.4857,6.493,6.4964,6.5046,6.5091,6.5155,6.5198,6.517,6.5316,6.5287,6.5341,6.534,6.5371,6.5369,6.5498,6.5396,6.5396,6.5396,6.5395,0,6.4377,6.4458,6.4529,6.4589,6.4681,6.4725,6.4814,6.4859,6.4923,6.4992,6.5015,6.5079,6.5132,6.5204,6.5238,6.5334,6.5353,6.5377,6.5386,6.5377,6.5374,6.5407,6.5402,6.5399,6.5399,6.5398,6.5397,0,6.4445,6.4496,6.4603,6.4691,6.4715,6.4778,6.4853,6.4913,6.4954,6.5042,6.5065,6.513,6.5216,6.5265,6.5372,6.5396,6.5503,6.5507,6.5479,6.5483,6.5535,6.553,6.5691,6.5716,6.5595,6.5596,6.5597,0,6.4506,6.4569,6.4664,6.4712,6.4757,6.4835,6.4888,6.4934,6.4988,6.5078,6.5127,6.5214,6.5287,6.5424,6.5481,6.5564,6.5572,6.5622,6.5584,6.5574,6.5575,6.5572,6.5579,6.5629,6.563,6.5631,6.5632,0,6.4609,6.4632,6.4708,6.4793,6.4855,6.4924,6.4993,6.5031,6.5088,6.5148,6.5237,6.5294,6.5405,6.5492,6.5581,6.5626,6.564,6.5643,6.5661,6.5653,6.5635,6.5648,6.5499,6.564,6.5639,6.5638,6.5638,6.5638,6.4678,6.4736,6.4812,6.4896,6.4953,6.5017,6.5078,6.5128,6.5203,6.5298,6.532,6.5415,6.5489,6.5609,6.5657,6.5731,6.5722,6.5747,6.5753,6.5759,6.5762,6.5621,6.5747,6.5747,6.5747,6.5747,6.5747,0,6.4785,6.4836,6.4912,6.5008,6.5075,6.5082,6.5158,6.5214,6.5297,6.5365,6.5437,6.554,6.5626,6.569,6.5778,6.5825,6.5834,6.5847,6.5845,6.5856,6.5764,6.5742,6.5839,6.5839,6.5839,6.5839,6.5839,6.5839,6.4848,6.4948,6.498,6.5109,6.5159,6.5252,6.5296,6.5355,6.5411,6.5525,6.5597,6.5639,6.5706,6.5799,6.5878,6.5895,6.5927,6.594,6.5958,6.5871,6.5862,6.5852,6.5831,6.5946,6.5946,6.6043,6.6044,6.6045]}]]